Regional Weather Roundup
Issued by NWS

Home | Current Version | Previous Version | Text Only | Print | Product List | Glossary On
Versions: 1 2 3 4 5 6 7 8 9 10 11 12 13 14 15 16 17 18 19 20 21 22 23 24 25 26 27 28 29 30 31 32 33 34 35 36 37 38 39 40 41 42 43 44 45 46 47 48 49 50
000
ASUS45 KBOU 280310
RWRCO

WEATHER ROUNDUP FOR COLORADO
NATIONAL WEATHER SERVICE DENVER/BOULDER CO
900 PM MDT TUE SEP 27 2016

NOTE: "FAIR" INDICATES FEW OR NO CLOUDS BELOW 12000 FEET WITH NO
SIGNIFICANT WEATHER AND/OR OBSTRUCTIONS TO VISIBILITY.

COZ001>005-013-030-031-280400-
...NORTHWEST COLORADO...

CITY           SKY/WX    TMP DP  RH WIND       PRES   REMARKS
CRAIG          FAIR      49  37  63 CALM      30.26R
HAYDEN         FAIR      55  30  38 SW8       30.27R
MEEKER         FAIR      53  40  61 CALM      30.27R
MOUNT WERNER   NOT AVBL
STEAMBOAT SPGS FAIR      55  33  44 E6        30.29R
WALDEN           N/A     50  23  34 N6        30.38R
$$

COZ006>008-011-280400-
...WEST CENTRAL VALLEYS...

CITY           SKY/WX    TMP DP  RH WIND       PRES   REMARKS
GRAND JUNCTION FAIR      69  33  26 N10       30.14R
MONTROSE       FAIR      59  39  47 S9        30.23R
EAGLE          FAIR      61  28  29 NE6       30.26R
RIFLE          FAIR      62  39  42 SE5       30.18R
DELTA          NOT AVBL
NUCLA          FAIR      64  32  29 W8        30.25R
$$

COZ017>023-064>068-280400-
...SOUTHWEST COLORADO...

CITY           SKY/WX    TMP DP  RH WIND       PRES   REMARKS
DURANGO        FAIR      56  33  42 N13       30.27R
CORTEZ         FAIR      56  39  53 NE8       30.23R
PAGOSA SPRINGS FAIR      54  28  36 CALM      30.35R
TELLURIDE      FAIR      56  38  50 SE6       30.45R
WOLF CREEK PAS FAIR      43  25  49 MISG      30.62R
$$

COZ009-010-012-014-032>034-037-058>063-280400-
...CENTRAL COLORADO...

CITY           SKY/WX    TMP DP  RH WIND       PRES   REMARKS
ASPEN          FAIR      51  32  48 SW10      30.33R
BUENA VISTA    FAIR      54  26  34 CALM      30.34R
COPPER MTN     FAIR      52  14  22 CALM      30.63R
BERTHOUD PASS  FAIR      41  28  60 CALM      30.66R
COTTONWOOD PAS MOCLDY    59  21  23 E10       30.46R
GUNNISON       FAIR      56  32  40 CALM      30.32R
KREMMLING      FAIR      61  21  21 W7        30.32R
LEADVILLE      FAIR      49  18  29 NE5       30.45R
MONARCH PASS   FAIR      46  25  42 W17       30.71R
SALIDA         FAIR      67  27  21 SE12G17   30.37R
SUNLIGHT       FAIR      52  30  43 W8        30.56R
WILKERSON PASS FAIR      46  21  36 E12G21    30.60R
$$

COZ069>075-280400-
...SAN LUIS VALLEY/SANGRE DE CRISTO MOUNTAINS...

CITY           SKY/WX    TMP DP  RH WIND       PRES   REMARKS
ALAMOSA        FAIR      50  27  40 CALM      30.29R
LA VETA PASS   FAIR      54  30  40 MISG      30.49R
SAGUACHE       NOT AVBL
$$

COZ035-036-038>040-280400-
...NORTHERN COLORADO FRONT RANGE...

CITY           SKY/WX    TMP DP  RH WIND       PRES   REMARKS
DENVER INTL AP FAIR      63  22  20 CALM      30.17R
DMNS CITY PARK   N/A     60  38  44 N2        30.18R
AURORA         CLEAR     64  22  20 E7        30.20R
FRONT RANGE AP NOT AVBL
ERIE MUNI ARPT FAIR      59  30  34 CALM      30.17R
BOULDER MUN AP FAIR      68  32  26 CALM      30.17R
CENTENNIAL     FAIR      64  26  23 SW3       30.21R
BROOMFIELD     PTCLDY    66  27  22 W8        30.20R
FORT COLLINS   FAIR      68  36  30 CALM      30.15R
LONGMONT       FAIR      62  32  32 W5        30.18R
$$

COZ041-046-047-076>085-087-088-280400-
...PIKES PEAK/PALMER DIVIDE AND SOUTHERN FOOTHILLS...

CITY           SKY/WX    TMP DP  RH WIND       PRES   REMARKS
COLO. SPRINGS  FAIR      60  31  33 N5        30.24R
A. F. ACADEMY  FAIR      54  32  43 N10       30.25R
SCHRIEVER AFB  NOT AVBL
ELLICOTT       NOT AVBL
FALCON         FAIR      55  32  42 W5        30.29R
FORT CARSON    FAIR      65  29  25 NW6       30.20R
LIMON          FAIR      52  25  35 N3        30.18R
MONUMENT HILL  FAIR      54  23  30 CALM      30.31R
TRINIDAD       FAIR      62  32  32 W5        30.19R
$$

COZ042>045-048>051-090-091-280400-
...NORTHEAST COLORADO...

CITY           SKY/WX    TMP DP  RH WIND       PRES   REMARKS
GREELEY ARPT   FAIR      61  39  44 CALM      30.15R
AKRON          FAIR      67  21  17 E3        30.13R
BURLINGTON     FAIR      60  39  45 NW6       30.10R
WRAY           NOT AVBL
STERLING       FAIR      59  36  41 NE3       30.08R
HOLYOKE        FAIR      54  41  62 CALM      30.07R
FORT MORGAN    FAIR      60  27  28 N5        30.13R
$$

COZ086-089-092>099-280400-
...SOUTHEAST COLORADO...

CITY           SKY/WX    TMP DP  RH WIND       PRES   REMARKS
PUEBLO         FAIR      65  30  27 E7        30.11R
LA JUNTA       FAIR      68  35  29 SE7       30.10R
LAMAR          FAIR      69  35  28 S14       30.05R
SPRINGFIELD    NOT AVBL
$$



USA.gov is the U.S. government's official web portal to all federal, state and local government web resources and services.